Other Public Products
Issued by NWS Grand Forks, ND

Home | Current Version | Previous Version | Text Only | Print | Product List | Glossary Off
Versions: 1 2 3 4 5 6 7 8 9 10 11 12 13 14 15 16 17 18 19 20 21 22 23 24 25 26 27 28 29 30 31 32 33 34 35 36 37 38 39 40 41 42 43 44 45 46 47 48 49 50

000
FPUS83 KFGF 131931
OPUFGF
PRAIRIE TO PINES WEATHER ROUNDUP
NATIONAL WEATHER SERVICE EASTERN NORTH DAKOTA/GRAND FORKS ND
100 PM CST WED DEC 13 2017

 **SATELLITE DATA USED TO AUGMENT SKY COVER AT AUTOMATED STATIONS**
 *****  WEATHER ACROSS EASTERN NORTH DAKOTA  *****

CITY           SKY/WX    TMP DP  RH WIND       PRES   REMARKS
GRAND FORKS    CLOUDY    25  20  81 N31G43    29.81R WCI   8
GRND FORKS AFB CLOUDY    25  21  86 N23G35    29.82R WCI  10
GRND FORKS NWS   N/A     27 N/A N/A N13         N/A  WCI  16
BUXTON           N/A     25  24  96 N20G31      N/A  WCI  11
DEVILS LAKE    LGT SNOW  30  28  93 N18       29.84R FOG     WCI  18
FARGO          CLOUDY    28  25  88 N20       29.79R WCI  15
WAHPETON ARPT  CLOUDY    30  25  80 N15G25    29.79R WCI  19
$$

 *****  WEATHER ACROSS CENTRAL AND WESTERN NORTH DAKOTA  *****

CITY           SKY/WX    TMP DP  RH WIND       PRES   REMARKS
JAMESTOWN      CLOUDY    33  29  85 NW15      29.82R WCI  23
BISMARCK       CLOUDY    36  26  67 NW16G30   29.95R
MINOT          CLOUDY    36  27  69 NW22      29.92S
MINOT AFB      CLOUDY    35  27  70 NW20G29   29.91S WCI  25
GARRISON         N/A     35  25  66 NW25G35   29.93S WCI  23
WILLISTON      FAIR      40  25  55 NW15      30.03F
DICKINSON      FAIR      38  24  57 NW22G30   29.97S
HETTINGER      FAIR      40  23  50 NW25G33   30.00S
$$

 *****  OTHER OBSERVATIONS NORTHEAST NORTH DAKOTA  *****

CITY           SKY/WX    TMP DP  RH WIND       PRES   REMARKS
WALHALLA       FLURRIES  21  21 100 N18G24    29.86S WCI   6
LANGDON        CLOUDY    23  23 100 N17G24    29.83R WCI   9
CAVALIER         N/A     21  18  86 N17       29.85R WCI   7
GRAFTON          N/A     23  19  86 N21G29    29.85R WCI   8
CANDO          MOCLDY    30  30 100 N15G23    29.87R WCI  19
FORT TOTTEN      N/A     32  29  88 N7        29.95S
ROLLA          CLOUDY    28  28 100 N14       29.85R WCI  17
RUGBY          CLOUDY    34  23  64 NW23G32   29.87S WCI  22
 ***** THE ABOVE OBSERVATIONS ARE NON NWS ARE NOT QUALITY
        CONTROLLED AND MAY MIS-REPORT RAIN FOR SNOW...
$$

 *****  OTHER OBSERVATIONS SOUTHEAST NORTH DAKOTA *****

CITY           SKY/WX    TMP DP  RH WIND       PRES   REMARKS
COOPERSTOWN    CLOUDY    32  27  80 NW21G29   29.80S WCI  20
VALLEY CITY    CLOUDY    30  30 100 NW20G32   29.82S WCI  18
OAKES            N/A     32  32 100 NW13G18   29.83S WCI  22
GWINNER          N/A     32  28  86 NW16G24   29.82R WCI  21
SHEYENNE NWR     N/A     34  25  68 N16       29.95S WCI  24
BUFFALO          N/A     31  24  73 W17G31      N/A  WCI  20
WYNDMERE       NOT AVBL
 ***** THE ABOVE OBSERVATIONS ARE NON NWS ARE NOT QUALITY
       CONTROLLED AND MAY MIS-REPORT RAIN FOR SNOW...
$$

  *****  WEATHER ACROSS NORTHERN MINNESOTA  *****

CITY           SKY/WX    TMP DP  RH WIND       PRES   REMARKS
FLAG ISLAND    FAIR      14   9  79 N9        29.78R WCI   2
WARROAD        FLURRIES  16  10  79 N7        29.77F WCI   6
ROSEAU         FLURRIES  18  12  79 N8        29.78S WCI   7
HALLOCK        CLOUDY    21  18  86 N13G20    29.82R WCI   9
THF RVR FALLS  LGT SNOW  19  16  86 N14       29.78S FOG     WCI   6
HALSTAD        NOT AVBL
FOSSTON        LGT SNOW  18  16  93 N15       29.75R VSB 1   WCI   3
BAUDETTE       LGT SNOW  15  10  80 N8        29.75S WCI   4
WASKISH        LGT SNOW  18  12  79 N8        29.75R WCI   7
CROOKSTON      LGT SNOW  21  19  93 N23       29.81R WCI   5
$$
  *****  WEATHER ACROSS CENTRAL AND WEST MINNESOTA  *****

CITY           SKY/WX    TMP DP  RH WIND       PRES   REMARKS
BEMIDJI        LGT SNOW  16  13  88 N9        29.73R WCI   4
PARK RAPIDS    CLOUDY    19  15  84 N15       29.69R WCI   5
WADENA         CLOUDY    21  18  86 NW17G23   29.69R FOG     WCI   7
DETROIT LAKES  PTSUNNY   23  21  93 N23G32    29.74R WCI   7
MOORHEAD       CLOUDY    27  21  80 N25G33    29.79R WCI  11
FERGUS FALLS   CLOUDY    25  23  93 N14G26    29.78R WCI  13
ELBOW LAKE     CLOUDY    26  24  92 NW21G29   29.75R FOG     WCI  11
MORRIS MN      CLOUDY    28  25  86 NW26G38   29.73S WCI  13
STAPLES        CLOUDY    19  16  86 N14G20    29.69R WCI   6
WHEATON        CLOUDY    32  25  74 NW23G30   29.80S WCI  19
$$
  *****  WEATHER ELSEWHERE ACROSS MINNESOTA  *****

CITY           SKY/WX    TMP DP  RH WIND       PRES   REMARKS
DULUTH         LGT SNOW  22  18  85 NE13      29.61R VSB 3/4 WCI  10
INTRNTL FALLS  LGT SNOW  18  11  74 N8        29.74R WCI   8
ELY            FAIR      18  12  79 NE7       29.66R WCI   8
CLOQUET        LGT SNOW  25  18  74 N8        29.61R WCI  16
BRAINERD       CLOUDY    20  15  81 NW15      29.67R HAZE    WCI   6
HIBBING        CLOUDY    20  14  77 N10       29.65R WCI   9
ALEXANDRIA     CLOUDY    26  20  77 N22G33    29.69R WCI  12
SAINT CLOUD    CLOUDY    24  20  84 N18       29.65R WCI  10
MINNEAPOLIS    CLOUDY    24  18  77 N21G29    29.61R WCI   9
$$

  *****  WEATHER ACROSS SOUTH DAKOTA  *****

CITY           SKY/WX    TMP DP  RH WIND       PRES   REMARKS
SIOUX FALLS    CLOUDY    38  30  73 N31       29.78S
BROOKINGS      CLOUDY    34  28  79 N22G28    29.77R WCI  22
WATERTOWN      CLOUDY    32  29  88 N22G31    29.78S WCI  19
HURON          CLOUDY    38  28  67 NW30      29.85S
SISSETON         N/A     33  26  75 N23G33    29.79R WCI  21
ABERDEEN       CLOUDY    37  29  72 NW22G31   29.85S
MITCHELL       CLOUDY    41  30  65 NW23G30   29.87R
PIERRE         FAIR      46  28  49 NW30G37   29.91F
MOBRIDGE       CLOUDY    38  28  67 N18G32    29.90R
RAPID CITY     FAIR      47  21  35 NW31G39   30.01F
$$

  *****  SOME WEATHER IN NEARBY STATES *****

CITY           SKY/WX    TMP DP  RH WIND       PRES   REMARKS
GLASGOW MT     FAIR      37  26  64 NW15      30.12F
GREAT FALLS MT CLOUDY    36  27  69 SW13      30.26F
CHEYENNE WY    FAIR      45  10  24 N15G23    30.09F
SCOTTSBLUFF NE FAIR      50  15  24 NW22G32   30.07F
OMAHA NE       FAIR      51  30  44 NW29G38   29.75S
DES MOINES IA  CLOUDY    41  32  70 NW26G49   29.63R
DAVENPORT IA   PTSUNNY   42  30  62 NW33G47   29.39R
CHICAGO IL     CLOUDY    36  23  59 SW15      29.27F
EAU CLAIRE WI  CLOUDY    21  15  78 N13       29.50R WCI   9
LA CROSSE WI   CLOUDY    28  21  75 NW23G29   29.45R WCI  14
$$

  *****  SOME NATIONAL WEATHER *****

CITY           SKY/WX    TMP DP  RH WIND       PRES   REMARKS
LA GUARDIA NY  FAIR      32   6  33 NW35G44   29.56R WCI  17
RALEIGH NC     FAIR      41  10  28 SW17G23   29.90F
ATLANTA GA     FAIR      46  10  23 SW12      29.96F
NEW ORLEANS LA PTSUNNY   61  33  35 S10       30.12F
OKLAHOMA CITY  FAIR      62  22  21 N10       29.93F
ALBUQUERQUE NM FAIR      48   4  16 VRB3      30.16F
SALT LAKE CITY LGT SNOW  25  22  88 NW5       30.32F FOG     WCI  19
LOS ANGELES CA FAIR      78  11   8 CALM      30.00F
BOISE ID       CLOUDY    24  21  88 SW3       30.42F FOG
SEATTLE WA     FAIR      44  37  76 N9        30.40F
$$

*** WEATHER ACROSS MANITOBA...SASKATCHEWAN AND ONTARIO ***
                ***ONTARIO***

CITY           SKY/WX    TMP DP  RH WIND       PRES   REMARKS
GERALDTON      FLURRIES  -4  -9  77 N6        29.78F WCI -16
THUNDER BAY    PTSUNNY   12   3  67 NE8       29.76R WCI   1
SIOUX LOOKOUT  PTSUNNY    9   1  72 CALM      29.79R
TORONTO        MOSUNNY   18   3  53 NW10G17   29.65F WCI   6
BIG TROUT LK   SUNNY    -15 -20  76 SW3       29.92F
PICKLE LAKE    CLOUDY    -4  -8  84 VRB2      29.83S FOG
DRYDEN         CLOUDY    10   7  85 NE7       29.77R WCI   0
KENORA         MOSUNNY   12   7  79 NE8       29.77R WCI   1
$$
                *** MANITOBA***

CITY           SKY/WX    TMP DP  RH WIND       PRES   REMARKS
BRANDON        PTSUNNY   30  23  74 N16       29.89R WCI  19
DAUPHIN        CLOUDY    19  16  86 N10       29.95S WCI   8
ISLAND LAKE    MOSUNNY   -6 -11  77 NW2       29.93
PILOT MOUND      N/A     23  21  93 N17G24      N/A  WCI   9
THE PAS        CLOUDY    16   9  73 NW3       29.95S
THOMPSON       PTSUNNY    0  -6  78 CALM      29.93F
WINNIPEG       FLURRIES  18  14  86 N15G21    29.87R WCI   3
LYNN LAKE      CLOUDY     5   3  92 NW5       29.92R WCI  -4
CHURCHILL      MOCLDY   -13 -18  77 SW5       29.98F WCI -25
GILLAM         MOCLDY   -11 -17  77 VRB2      29.97F
$$
                ***SASKATCHEWAN***

CITY           SKY/WX    TMP DP  RH WIND       PRES   REMARKS
ESTEVAN        CLOUDY    34  25  69 NW17G24   29.97F WCI  23
KINDERSLEY     MOSUNNY   36  28  75 W10       30.09F
LLOYDMINSTER   MOSUNNY   36  28  75 W16G24    30.03F
PRINCE ALBERT  MOSUNNY   34  27  75 NW12      29.97F
REGINA         MOSUNNY   36  28  75 W17       29.99F
YORKTON        CLOUDY    30  27  86 N6        29.92S WC



USA.gov is the U.S. government's official web portal to all federal, state and local government web resources and services.